ARIANE 44LP DEB, 26810

Orbit data source: Space-Track

ARIANE 44LP DEB, 26810 is space debris in HEO originally from a launch on Sun, 11 Dec 1988 UTC launched from the French Guiana (FRGUI). Debris objects in space refer to the collection of defunct objects orbiting the Earth. Examples of debris include non-operational satellites, rocket bodies, and fragments generated from explosions, collisions, or faulty payload assembly.

Loading next visibility...
Identifier
26810, 1988-109M
Orbit
HEO
Country
Flag of FRFR
Related business
Manufacturer
Unknown
Mission
Spacecraft
Bus & Motor
Unknown
Mass
Unknown
Launch date (UTC)
1988-12-11 (38 years ago)
Launch vehicle
Unknown
Launch site
French Guiana (FRGUI)
Object type
Payload
Rocket body
Debris
Shape & HBR
Unknown shape, 0.5 m
Radar Cross Section
Medium (>0.1 m² and <1 m²)

Expand to show TLE details & history
Last TLE update: 8 months ago

TLE from 8 months ago
0 ARIANE 44LP DEB
1 26810U 88109M   25289.21886441 -.00005314  00000-0 -29492+0 0  9993
2 26810   6.1927 177.4953 7141063 190.8884 298.9241  2.16124452107167
Epoch: 2025-10-16T05:15Z
TLE epoch observation values (Epoch: 2025-10-16T05:15:09.885Z)
Latitude
4.62019°
Longitude
121.40124°
Altitude
22,434.706 km
Speed
3.449 km/s
True Right ascension
15h 00m 41s
True Declination
4° 36' 48"
Sunlit
Object was in daylight at epoch
Visualization orbit readout
Latitude
Unknown
Longitude
Unknown
Altitude
Unknown
Speed
Unknown
Apparent Right ascension
Unknown
Apparent Declination
Unknown
Sunlit
N/A
Visualization observer readout
Local Sidereal Time
02:18:49
Azimuth
Unknown
Elevation
Unknown
Doppler factor
Unknown
Orbital elements
Apogee altitude
36,945.315 km
Perigee altitude
847.729 km
Semi-major axis
25,274.659 km
Eccentricity
0.71411
Inclination
6.1927°
RAAN
177.4953°
Arg. of periapsis
190.8884°
True anomaly
217.08281°
Mean anomaly
298.9241°
Eccentric anomaly
258.7895°
Mean motion
0.54015 °/min
Orbital period
666.48 mins
BSTAR
-0.29492
Loading maneuver chart data...
Computing Atmospheric mass density...
Loading historical data...
Loading historical data...
Loading historical data...
Loading historical data...
Loading historical data...
Loading historical data...
Loading historical data...

Documentation

Showing up to 5 results
|